[[{"header":{"parameterUnit":"m.s-1","parameterCategory":1,"la1":30.2992,"la2":30.254,"lo1":-89.0895,"lo2":-89.0443,"dy":0.0025,"dx":0.0025,"nx":19,"ny":19,"refTime":"2026-03-24T03:00:00:Z","depth":0,"parameterNumber":2,"parameterNumberName":"U-component_of_WINDS"},"data":[0,0,0,-5.1011,-5.1015,-5.1188,-5.1188,-5.1427,-5.1429,0,0,0,0,0,0,0,0,0,0,0,-5.0969,-5.0971,-5.101,-5.1015,-5.1188,-5.1188,-5.1427,-5.1429,0,0,0,0,0,0,0,0,0,0,0,-5.0968,-5.097,-5.0973,-5.1016,-5.1187,-5.1188,-5.1426,-5.129,0,0,0,0,0,0,0,0,0,0,-5.1119,-5.1089,-5.097,-5.0973,-5.1017,-5.1187,-5.1188,-5.1283,-5.1298,-5.1356,0,-5.1409,0,-5.1423,-5.1446,-5.1447,0,0,0,-5.1008,-5.1076,-5.1115,-5.0973,-5.1018,-5.1187,-5.1108,-5.1291,-5.1309,-5.1377,-5.1412,-5.1421,-5.1427,-5.1448,-5.1449,-5.1805,-5.1807,0,0,-5.0998,-5.1005,-5.1103,-5.1126,-5.1099,-5.1102,-5.1113,-5.1301,-5.1341,-5.1413,-5.1426,-5.1431,-5.145,-5.1452,-5.1803,-5.1806,0,0,0,-5.0976,-5.0999,-5.1032,-5.1117,-5.1147,-5.1107,-5.112,-5.1333,-5.1343,-5.1429,-5.1434,-5.1451,-5.1454,-5.1801,-5.1804,-5.1907,0,0,0,-5.097,-5.0985,-5.1028,-5.1034,-5.1144,-5.1241,-5.1147,-5.133,-5.1351,-5.1433,-5.1451,-5.1457,-5.1799,-5.1803,-5.1899,-5.1953,0,0,0,-5.0954,-5.0983,-5.1012,-5.1034,-5.1108,-5.1238,-5.1259,-5.1334,-5.1355,-5.1448,-5.1458,-5.1798,-5.1802,-5.1893,-5.1942,-5.2048,0,0,0,-5.094,-5.11,-5.1013,-5.1196,-5.1107,-5.1301,-5.1258,-5.1402,-5.1495,-5.1453,-5.1799,-5.1804,-5.189,-5.1935,-5.204,-5.2135,-5.2176,0,0,-5.1146,-5.1125,-5.1232,-5.116,-5.137,-5.1274,-5.1502,-5.158,-5.1584,-5.1732,-5.174,-5.1902,-5.1941,-5.2046,-5.2408,-5.2441,0,0,0,-5.13,-5.1376,-5.1431,-5.1519,-5.1584,-5.1643,-5.1687,-5.1717,-5.1842,-5.1661,-5.197,-5.1993,-5.2055,-5.2099,-5.2127,-5.2178,-5.1826,-5.1825,-5.1825,-5.1596,-5.1594,-5.1771,-5.179,-5.1877,-5.1922,-5.1992,-5.204,-5.2011,-5.2085,-5.2127,-5.2347,-5.24,-5.242,-5.2474,-5.218,-5.218,-5.2181,-5.2181,-5.1895,-5.2002,-5.1964,-5.212,-5.2118,-5.2251,-5.2303,-5.2279,-5.2402,-5.2314,-5.2368,-5.2268,-5.2456,-5.2503,-5.2189,-5.2187,-5.2186,-5.2186,-5.2185,-5.2086,-5.2137,-5.2172,-5.2301,-5.2402,-5.2418,-5.2539,-5.2533,-5.2528,-5.2582,-5.2626,-5.2624,-5.2619,-5.2604,-5.2605,-5.2606,-5.2607,-5.2607,-5.2608,-5.2268,-5.2305,-5.2406,-5.2492,-5.2549,-5.2625,-5.2676,-5.2733,-5.2794,-5.278,-5.2781,-5.2744,-5.2476,-5.2407,-5.2619,-5.2617,-5.2616,-5.2615,-5.2614,-5.2564,-5.2498,-5.2655,-5.2713,-5.2814,-5.2915,-5.2909,-5.3026,-5.3073,-5.3134,-5.3089,-5.2892,-5.287,-5.2848,-5.279,-5.3089,-5.3089,-5.3089,-5.3089,-5.2722,-5.2713,-5.2873,-5.2966,-5.3057,-5.3069,-5.3249,-5.3293,-5.3328,-5.3357,-5.3315,-5.3239,-5.3217,-5.3208,-5.3179,-5.3124,-5.3502,-5.3502,-5.3502,-5.2903,-5.2903,-5.3055,-5.3088,-5.3169,-5.3239,-5.3409,-5.3519,-5.3545,-5.3519,-5.338,-5.3362,-5.3241,-5.3202,-5.3166,-5.312,-5.302,0,0]},{"header":{"parameterUnit":"m.s-1","parameterCategory":1,"la1":30.2992,"la2":30.254,"lo1":-89.0895,"lo2":-89.0443,"dy":0.0025,"dx":0.0025,"nx":19,"ny":19,"refTime":"2026-03-24T03:00:00:Z","depth":0,"parameterNumber":3,"parameterNumberName":"V-component_of_WINDS"},"data":[0,0,0,2.3422,2.3421,2.3348,2.3348,2.3243,2.3242,0,0,0,0,0,0,0,0,0,0,0,2.3438,2.3437,2.3422,2.342,2.3349,2.3348,2.3243,2.3242,0,0,0,0,0,0,0,0,0,0,0,2.3438,2.3437,2.3436,2.342,2.3349,2.3348,2.3244,2.3302,0,0,0,0,0,0,0,0,0,0,2.3374,2.3383,2.3438,2.3436,2.342,2.3349,2.3348,2.3305,2.3298,2.3271,0,2.3248,0,2.3244,2.3234,2.3234,0,0,0,2.3423,2.3389,2.3375,2.3436,2.3419,2.3349,2.3382,2.3301,2.3294,2.3262,2.3247,2.3243,2.3242,2.3234,2.3233,2.3076,2.3075,0,0,2.3427,2.3421,2.338,2.337,2.3384,2.3384,2.3379,2.3297,2.3278,2.3246,2.3241,2.324,2.3233,2.3232,2.3077,2.3076,0,0,0,2.3437,2.3424,2.3412,2.3374,2.3363,2.3382,2.3377,2.3282,2.3279,2.324,2.3239,2.3232,2.3231,2.3078,2.3077,2.3029,0,0,0,2.3439,2.3429,2.3414,2.3409,2.3364,2.3322,2.3363,2.3284,2.3275,2.324,2.3232,2.323,2.3079,2.3077,2.3032,2.3005,0,0,0,2.3444,2.343,2.3418,2.3409,2.3378,2.3323,2.3315,2.3283,2.3275,2.3234,2.323,2.308,2.3078,2.3035,2.3011,2.2963,0,0,0,2.3447,2.3373,2.3417,2.3335,2.3379,2.3296,2.3316,2.3253,2.3213,2.3232,2.3079,2.3077,2.3036,2.3014,2.2966,2.2921,2.2902,0,0,2.335,2.3361,2.3314,2.3351,2.3259,2.3307,2.3207,2.3174,2.3173,2.3108,2.3104,2.3031,2.3011,2.2964,2.2802,2.2787,0,0,0,2.3281,2.3246,2.3224,2.3187,2.3164,2.3141,2.3125,2.3113,2.3059,2.314,2.3002,2.299,2.2963,2.2941,2.2928,2.2905,2.3067,2.3067,2.3068,2.3131,2.3141,2.3063,2.3063,2.3028,2.3015,2.2986,2.2968,2.2983,2.2951,2.293,2.2831,2.2806,2.2797,2.2772,2.2909,2.2909,2.2908,2.2908,2.299,2.2942,2.2971,2.2905,2.2914,2.2858,2.2844,2.2858,2.2805,2.2846,2.2822,2.2865,2.278,2.2759,2.2905,2.2905,2.2906,2.2906,2.2906,2.2891,2.287,2.2861,2.2813,2.2774,2.2777,2.2728,2.2737,2.2745,2.2722,2.2702,2.2703,2.2703,2.2713,2.2712,2.2712,2.2712,2.2711,2.2711,2.2792,2.2784,2.2742,2.2715,2.2696,2.267,2.266,2.2639,2.2619,2.2629,2.2629,2.2647,2.2772,2.2802,2.2706,2.2707,2.2707,2.2708,2.2708,2.2641,2.2678,2.2614,2.2595,2.2566,2.2527,2.2543,2.2501,2.2486,2.2461,2.2487,2.2578,2.2588,2.2598,2.2623,2.2486,2.2486,2.2486,2.2486,2.2557,2.2566,2.2504,2.2473,2.2443,2.2453,2.2379,2.2372,2.2369,2.236,2.2382,2.2416,2.2427,2.2431,2.2444,2.2467,2.2294,2.2294,2.2294,2.2464,2.2472,2.2407,2.241,2.2389,2.237,2.2302,2.2263,2.2267,2.2286,2.2353,2.2361,2.2417,2.2435,2.2451,2.2473,2.2515,0,0]}]]